Weather History for Bauerfield Efate, Vanuatu

Change the Weather History Date:

Sunday, September 15, 2013

  Actual Average Record
Temperature  
Mean Temperature 76 °F -  
Max Temperature 85 °F - - ()
Min Temperature 68 °F - - ()
Cooling Degree Days 12    
Growing Degree Days 26 (Base 50)    
Moisture  
Dew Point 70 °F    
Average Humidity 83    
Maximum Humidity 99    
Minimum Humidity 55    
Precipitation  
Precipitation 0.00 in - - ()
Sea Level Pressure  
Sea Level Pressure 29.94 in    
Wind  
Wind Speed 3 mph ()    
Max Wind Speed 23 mph    
Max Gust Speed -    
Visibility 7.6 miles    
Events      
T = Trace of Precipitation, MM = Missing Value Source: Averaged Metar Reports

Daily Weather History Graph

Daily Weather History Graph

Search for Another Location

Airport:

Trip Planner

Search our weather history database for the weather conditions in past years. The results will help you decide how hot, cold, wet, or windy it might be!

Date:

Astronomy

Sep. 15, 2013 Rise Set
Actual Time 5:42 AM VUT 5:41 PM VUT
Civil Twilight 5:21 AM VUT 6:03 PM VUT
Nautical Twilight 4:55 AM VUT 6:28 PM VUT
Astronomical Twilight 4:30 AM VUT 6:53 PM VUT
Moon 1:30 PM VUT (9/15) 1:46 AM VUT (9/15)
Length of Visible Light 12h 42m
Length of Day
11h 59m
Waxing Gibbous, 76% of the Moon is Illuminated
Sep 15
Waxing Gibbous
Sep 19
Full
Sep 27
Last Quarter
Oct 5
New
Oct 12
First Quarter

Hourly Weather History & Observations

Time (VUT) Temp. Heat Index Dew Point Humidity Pressure Visibility Wind Dir Wind Speed Gust Speed Precip Events Conditions
12:00 AM 71.6 °F - 69.8 °F 94% 29.95 in 6.2 mi Variable 1.2 mph - N/A   Partly Cloudy
1:00 AM 71.6 °F - 69.8 °F 94% 29.95 in 6.2 mi Variable 2.3 mph - N/A   Partly Cloudy
2:00 AM 72 °F - 71 °F 94% 29.94 in 12 mi Calm Calm - -   Partly Cloudy
2:00 AM 71.6 °F - 69.8 °F 94% 29.92 in 6.2 mi Calm Calm - N/A   Partly Cloudy
3:00 AM 71.6 °F - 69.8 °F 94% 29.89 in 6.2 mi Calm Calm - N/A   Partly Cloudy
4:00 AM 71.6 °F - 69.8 °F 94% 29.92 in 6.2 mi Variable 23.0 mph - N/A   Partly Cloudy
5:00 AM 72 °F - 71 °F 97% 29.95 in 12 mi 1.2 mph - -   Partly Cloudy
5:00 AM 71.6 °F - 69.8 °F 94% 29.95 in 6.2 mi Variable 1.2 mph - N/A   Mostly Cloudy
6:00 AM 71.6 °F - 69.8 °F 94% 29.95 in 6.2 mi Variable 1.2 mph - N/A   Mostly Cloudy
7:00 AM 73.4 °F - 71.6 °F 94% 29.98 in 6.2 mi Calm Calm - N/A   Scattered Clouds
8:00 AM 78 °F - 73 °F 79% 29.99 in 12 mi East 4.6 mph - -   Partly Cloudy
8:00 AM 77.0 °F - 71.6 °F 83% 29.98 in 6.2 mi East 4.6 mph - N/A   Mostly Cloudy
9:00 AM 78.8 °F - 71.6 °F 78% 29.98 in 6.2 mi East 6.9 mph - N/A   Mostly Cloudy
10:00 AM 82.4 °F 86.3 °F 69.8 °F 66% 29.98 in 6.2 mi East 6.9 mph - N/A   Mostly Cloudy
11:00 AM 83 °F - 71 °F 60% 29.97 in 12 mi East 6.9 mph - -   Partly Cloudy
11:00 AM 82.4 °F 86.3 °F 69.8 °F 66% 29.95 in 6.2 mi East 6.9 mph - N/A   Mostly Cloudy
12:00 PM 80.6 °F 84.6 °F 71.6 °F 74% 29.92 in 6.2 mi East 6.9 mph - N/A   Mostly Cloudy
1:00 PM 82.4 °F 86.3 °F 69.8 °F 66% 29.92 in 6.2 mi ESE 9.2 mph - N/A   Mostly Cloudy
2:00 PM 84 °F - 70 °F 55% 29.91 in 12 mi East 9.2 mph - -   Partly Cloudy
2:00 PM 84.2 °F 88.4 °F 69.8 °F 62% 29.89 in 6.2 mi East 9.2 mph - N/A   Scattered Clouds
3:00 PM 82.4 °F 86.3 °F 69.8 °F 66% 29.89 in 6.2 mi East 6.9 mph - N/A   Scattered Clouds
4:00 PM 80.6 °F 84.6 °F 71.6 °F 74% 29.89 in 6.2 mi East 5.8 mph - N/A   Mostly Cloudy
5:00 PM 79 °F - 71 °F 69% 29.91 in 12 mi East 5.8 mph - -   Partly Cloudy
5:00 PM 78.8 °F - 69.8 °F 74% 29.89 in 6.2 mi East 5.8 mph - N/A   Scattered Clouds
6:00 PM 75.2 °F - 69.8 °F 83% 29.92 in 6.2 mi East 3.5 mph - N/A   Scattered Clouds
7:00 PM 71.6 °F - 69.8 °F 94% 29.95 in 6.2 mi Variable 2.3 mph - N/A   Partly Cloudy
8:00 PM 72 °F - 70 °F 91% 29.95 in 12 mi Calm Calm - -   Partly Cloudy
8:00 PM 71.6 °F - 69.8 °F 94% 29.95 in 6.2 mi Calm Calm - N/A   Partly Cloudy
9:00 PM 69.8 °F - 68.0 °F 94% 29.95 in 6.2 mi Calm Calm - N/A   Scattered Clouds
10:00 PM 68.0 °F - 66.2 °F 94% 29.95 in 6.2 mi Calm Calm - N/A   Mostly Cloudy
11:00 PM 68 °F - 68 °F 99% 29.96 in 12 mi Calm Calm - -   Partly Cloudy
11:00 PM 68.0 °F - 66.2 °F 94% 29.95 in 6.2 mi Calm Calm - N/A   Partly Cloudy